Index of /publications

 NameLast modifiedSizeDescription

 Parent Directory   -  
 Images(outsideWP)/ 2019-03-17 18:02 -  
 misc/ 2019-03-17 18:03 -  
 temp/ 2019-03-17 18:03 -  
 2006_IE06(Preface).pdf 2012-12-31 00:00 12K 
 2000_4S-EASST00_abst..>2012-12-31 00:00 13K 
 2009_pmc09(MakingOur..>2015-01-14 00:00 13K 
 2001_Equator01(Embed..>2012-12-31 00:00 14K 
 1993_Email93(Brooker..>2012-12-31 00:00 14K 
 2006_SPCA06(KeynoteA..>2012-12-31 00:00 15K 
 2008_CSTR08(Intellig..>2012-12-31 00:00 16K 
 2012_iED12(TowardsMi..>2013-01-12 00:00 18K 
 2006_HealthyPlanet(I..>2012-12-31 00:00 18K 
 2002_LBS02(Intellige..>2012-12-31 00:00 21K 
 2008_CSTR08(Rethinki..>2012-12-31 00:00 22K 
 2013_iED13(Customisa..>2013-11-11 00:00 22K 
 2010_CS10(Preface).pdf 2012-12-31 00:00 23K 
 1998_IEE98(TheApplic..>2012-12-31 00:00 25K 
 1997_AJ97(Intelligen..>2012-12-31 00:00 27K 
 2014_JUCS(Preface).pdf 2014-12-30 00:00 29K 
 2004_TSMC04(NeuroFuz..>2012-12-31 00:00 29K 
 1984_Patent84(MRT).pdf 2012-12-31 00:00 30K 
 2008_IE08Forward(Mak..>2012-12-31 00:00 34K 
 2008_CIC08(CouplingA..>2012-12-31 00:00 35K 
 2001_Equator01(Embed..>2012-12-31 00:00 36K 
 2009_IE09(Preface).pdf 2012-12-31 00:00 36K 
 2009_CCMSS09(Complex..>2012-12-31 00:00 38K 
 2002_Dialog02Castora..>2012-12-31 00:00 40K 
 2004_UbiComp04(Medic..>2012-12-31 00:00 40K 
 2005_IE05(Supporting..>2012-12-31 00:00 41K 
 2001_SCI01(TheIntegr..>2012-12-31 00:00 41K 
 2010_IE10(Preface).pdf 2012-12-31 00:00 42K 
 2005_IE05(TowardsARo..>2012-12-31 00:00 42K 
 2005_IE05(TowardsRob..>2012-12-31 00:00 42K 
 2010_!E10(WorkshopsP..>2012-12-31 00:00 42K 
 2001_BBC01(I_Robot_M..>2012-12-31 00:00 43K 
 2001_CVPD(WorkshopCa..>2012-12-31 00:00 43K 
 1998_SX98(AnatomyOfI..>2012-12-31 00:00 45K 
 1983_Patent93(Portab..>2012-12-31 00:00 45K 
 2002_Wyvern02(Sleepi..>2012-12-31 00:00 48K 
 2011_CS11(Preface).pdf 2012-12-31 00:00 49K 
 2009_AI09(ReportOnIE..>2012-12-31 00:00 49K 
 2002_RASC02(SoftComp..>2012-12-31 00:00 53K 
 1997_ISAM97(Processi..>2012-12-31 00:00 54K 
 2009_AI09(ReportOnIE..>2012-12-31 00:00 56K 
 2010_CJ10(CombiningT..>2012-12-31 00:00 60K 
 2016_SpringerForewor..>2016-01-20 00:00 61K 
 2012_PI12(WhoIsInCon..>2013-01-12 00:00 62K 
 2000_ISAS00(DIBAL).pdf 2012-12-31 00:00 63K 
 1998_CSTR98(CSM320Te..>2012-12-31 00:00 64K 
 2000_Patent00(Geneti..>2012-12-31 00:00 64K 
 2011_CS11(Preface_TO..>2012-12-31 00:00 65K 
 2011_IE11(TowardsPro..>2012-12-31 00:00 66K 
 1994_EssexStandard94..>2012-12-31 00:00 66K 
 2011_CS11(Schedule).pdf2012-12-31 00:00 69K 
 2011_ISAMI11(SocialP..>2012-12-31 00:00 70K 
 2006_HealthyPlanet(A..>2012-12-31 00:00 72K 
 1989_MSc(AnIntegrate..>2013-01-24 00:00 74K 
 2006_SPCA06(CPF).pdf 2012-12-31 00:00 75K 
 2005_EMB05(RealtimeP..>2012-12-31 00:00 75K 
 2004_UN_Habitat04(Pe..>2012-12-31 00:00 76K 
 2004_UN_Habitat04(Pe..>2012-12-31 00:00 76K 
 2000_4S-EASST2000(In..>2012-12-31 00:00 79K 
 2003_IFSA03(MultiAge..>2012-12-31 00:00 80K 
 2000_IAS00(Buildings..>2012-12-31 00:00 84K 
 2010_CS10(TalesfromP..>2012-12-31 00:00 88K 
 2004_ComputersGraphi..>2012-12-31 00:00 89K 
 2010_IE10(ExploringT..>2012-12-31 00:00 89K 
 2013_iED13(xRealityO..>2013-11-11 00:00 91K 
 2010_BJET10(MessageD..>2012-12-31 00:00 91K 
 2004_EMBS04(Optimise..>2012-12-31 00:00 92K 
 2007_IG07(TheEssex_i..>2012-12-31 00:00 93K 
 2011_ELearn11(Synthe..>2012-12-31 00:00 93K 
 2006_PS2006(AnEndUse..>2012-12-31 00:00 94K 
 2006_UIC06(CFP).pdf 2012-12-31 00:00 95K 
 1997_IRJ97(Automatin..>2012-12-31 00:00 95K 
 2006_PS2006(AnEndUse..>2012-12-31 00:00 95K 
 2001_i3_01(Cognitive..>2012-12-31 00:00 98K 
 2013_iED13(TowardsPe..>2013-11-11 00:00 100K 
 2007_Patent07(PiP).pdf 2012-12-31 00:00 101K 
 2013_CoT2013(iForest..>2013-07-20 01:00 102K 
 1998_Robotics98(SPRE..>2012-12-31 00:00 103K 
 1995_IAV95(FuzzyHier..>2012-12-31 00:00 104K 
 1995_IAV95(FuzzyHier..>2012-12-31 00:00 106K 
 2008_SASOW08(AtracoA..>2012-12-31 00:00 106K 
 2002_ICS02(Intellige..>2012-12-31 00:00 107K 
 2010_JAISE(OnComputa..>2016-07-19 01:00 107K 
 2000_RASC00(Hierarch..>2012-12-31 00:00 107K 
 2005_IE05(ProblemsFa..>2012-12-31 00:00 111K 
 1998_April98(UoE_Arc..>2012-12-31 00:00 113K 
 2010_JAISE10(Preface..>2012-12-31 00:00 113K 
 2004_UN_Habitat04(Pe..>2012-12-31 00:00 115K 
 2013_IE13(CrowdIntel..>2013-07-20 01:00 116K 
 1999_SR99(MultiAgent..>2012-12-31 00:00 116K 
 2003_IADIS03(Embedde..>2012-12-31 00:00 120K 
 2005_IE05(DeusExMach..>2012-12-31 00:00 120K 
 2010_IE10(SelfOrgani..>2012-12-31 00:00 120K 
 2006_IE06(TowardsThe..>2012-12-31 00:00 121K 
 2000_Fuzzy00(OnlineL..>2012-12-31 00:00 123K 
 2008_ICHL08(MixedRea..>2012-12-31 00:00 123K 
 2010_Oxford10(TheDig..>2012-12-31 00:00 124K 
 2010_CS10(CFP).pdf 2012-12-31 00:00 124K 
 2004_SMC04(AnEvoluti..>2012-12-31 00:00 126K 
 2012_eMagazine(Creat..>2013-01-12 00:00 129K 
 2010_IE10(AVANTI_An ..>2012-12-31 00:00 129K 
 2001_i3-01(TheCognit..>2012-12-31 00:00 129K 
 1999_CSEJ99(NetworkC..>2012-12-31 00:00 130K 
 2006_IE06(AmbientInt..>2012-12-31 00:00 131K 
 2005_CSTR05(Developi..>2012-12-31 00:00 131K 
 2013_CoT13(Preface_T..>2013-06-14 01:00 134K 
 2007_IE07(GermanNews..>2012-12-31 00:00 134K 
 1995_SEDA95(TheBrook..>2012-12-31 00:00 135K 
 2008_IE08(BespokeApp..>2013-02-02 00:00 135K 
 2007_JUCI07(Preface)..>2012-12-31 00:00 135K 
 2008_IE08Forward(Mak..>2012-12-31 00:00 137K 
 2001_Equator01(Embed..>2012-12-31 00:00 140K 
 2004_SMC04(TowardsDe..>2013-10-17 01:00 142K 
 2002_ICS02(Intellige..>2012-12-31 00:00 145K 
 2007_AP07(Ubiquitous..>2012-12-31 00:00 145K 
 2002_Fuzzy02(FuzzyIn..>2012-12-31 00:00 148K 
 2014_HR14(Preface).pdf 2014-06-01 01:00 151K 
 1998_SX98(IBseminarN..>2012-12-31 00:00 152K 
 1998_IEE98(TheApplic..>2012-12-31 00:00 154K 
 2014_CS14(Preface_TO..>2014-06-01 01:00 155K 
 1998_FSC98(Developin..>2012-12-31 00:00 155K 
 2001_ISR01(Intellige..>2012-12-31 00:00 157K 
 2010_PH10(AchievingH..>2012-12-31 00:00 157K 
 2003_Internet03(Embe..>2012-12-31 00:00 158K 
 2014_CoT14(Preface_T..>2014-06-01 01:00 158K 
 2008_IE08(TowardsAMi..>2015-01-14 00:00 160K 
 2006_PC06(MobileInte..>2012-12-31 00:00 161K 
 2013_WOFIEE13(Toward..>2013-07-20 01:00 164K 
 2010_IE10(Decloaking..>2012-12-31 00:00 165K 
 2007_EAAI07(UserInde..>2012-12-31 00:00 166K 
 2010_IE10(iWorldsBui..>2012-12-31 00:00 167K 
 2008_ICHL08(MixedRea..>2012-12-31 00:00 174K 
 2012_WOFIEE12(TheFac..>2012-12-31 00:00 178K 
 2005_IE05(VIirtualAp..>2012-12-31 00:00 185K 
 2012_iED12(BuzzBoard..>2013-01-12 00:00 185K 
 1999_CIMCA09(Behavio..>2012-12-31 00:00 187K 
 1998_IAV98(RobustNav..>2012-12-31 00:00 187K 
 2002_ICS02(Intellige..>2012-12-31 00:00 189K 
 2012_IE12(Exploratio..>2013-01-12 00:00 192K 
 2006_ICPS06(Unwanted..>2012-12-31 00:00 194K 
 2000_IAS00(FromMamma..>2012-12-31 00:00 194K 
 2007_LSMS07(Modellin..>2012-12-31 00:00 196K 
 2004_CIS2004(NeuralN..>2012-12-31 00:00 197K 
 2007_IE07(Topologica..>2012-12-31 00:00 198K 
 2002_FSCSCA02(SoftCo..>2012-12-31 00:00 199K 
 2004_IntelligentSyst..>2012-12-31 00:00 199K 
 2011_iC11(TheIntelli..>2012-12-31 00:00 203K 
 2009_PerAda09(Unders..>2012-12-31 00:00 204K 
 2013_iED13(ThePedago..>2013-11-11 00:00 205K 
 2008_JUS08(Intellige..>2012-12-31 00:00 205K 
 2013_CoT13(Viewpoint..>2013-07-06 01:00 206K 
 2005_PPC05(UserInter..>2012-12-31 00:00 209K 
 2006_ubicomp2006(AnE..>2012-12-31 00:00 212K 
 2010_IE10(AnAdjustab..>2012-12-31 00:00 213K 
 2011_CS11(MeetTheAUt..>2012-12-31 00:00 215K 
 2013_IE13(Selectable..>2013-07-20 01:00 219K 
 2001_CVPD(TheCogniti..>2012-12-31 00:00 221K 
 2003_JIS03(Hierarchi..>2012-12-31 00:00 226K 
 2010_CS10(TalesFromA..>2012-12-31 00:00 228K 
 2005_PPC05(UserInter..>2012-12-31 00:00 238K 
 2008_IE08(UsingAnAmo..>2015-03-24 00:00 241K 
 2004_WAC04(AdaptiveF..>2012-12-31 00:00 241K 
 2005_Pervasive05(Int..>2012-12-31 00:00 243K 
 1998_RTS98(Behaviour..>2012-12-31 00:00 243K 
 2013_CoT13(GeneticAl..>2013-07-20 01:00 243K 
 2000_RASC00(Hierarch..>2015-04-09 01:00 246K 
 2011_MC11(FromSelfMo..>2012-12-31 00:00 247K 
 2011_iC11(TeachingNe..>2012-12-31 00:00 251K 
 2016_CS16(DarkFuture..>2016-07-27 01:00 254K 
 2009_IE09(Supporting..>2015-01-14 00:00 254K 
 2007_IE07(DoDigitalH..>2012-12-31 00:00 254K 
 2014_IE14(RobustEcoF..>2014-06-01 01:00 256K 
 2013_WOFIEE13(Puttin..>2013-06-05 01:00 258K 
 2004_IS04(CreatingAm..>2012-12-31 00:00 259K 
 2004_Fuzzy04(Type2Fu..>2012-12-31 00:00 260K 
 2005_IE05(NeuralNetw..>2012-12-31 00:00 263K 
 2007_BL07(Explorator..>2012-12-31 00:00 266K 
 2009_IB09(SomeSocial..>2012-12-31 00:00 267K 
 2008_ICHL08(MixedRea..>2012-12-31 00:00 267K 
 2014_IE14(UsingScien..>2014-06-01 01:00 268K 
 2010_IE10(iWorldsBui..>2012-12-31 00:00 270K 
 2012_ISBE12(TheFacul..>2012-12-31 00:00 274K 
 1997_CSTR97(CSM326Te..>2013-01-25 00:00 274K 
 2015_iLRN'15(Structu..>2015-12-19 00:00 275K 
 2005_FUZZY05(Embedde..>2012-12-31 00:00 280K 
 1999_csej99(SpreaDis..>2012-12-31 00:00 282K 
 1984_XX84(MicroMap).pdf2012-12-31 00:00 284K 
 2009_IOS09(SoftAppli..>2012-12-31 00:00 285K 
 2009_JAISE09(SoftApp..>2012-12-31 00:00 285K 
 2013_iED13(Panoramic..>2013-11-11 00:00 286K 
 2014_CS14(Micro-Futu..>2014-06-01 01:00 290K 
 2014_IE14(TowardsMMO..>2014-06-01 01:00 290K 
 2011_iC11(VirtualCla..>2012-12-31 00:00 291K 
 2001_CVPD(TheCogniti..>2012-12-31 00:00 294K 
 2007_JUCI07(Data-Dri..>2012-12-31 00:00 297K 
 2007_FUZZY07(Paralle..>2012-12-31 00:00 297K 
 2009_IE09(Instabilit..>2012-12-31 00:00 297K 
 2004_IAV04(Spatially..>2012-12-31 00:00 297K 
 2011_IGI11(Immersive..>2012-12-31 00:00 299K 
 2012_iED12(EndUserPr..>2013-01-12 00:00 308K 
 2001_Equator01(Embed..>2012-12-31 00:00 312K 
 2013_CoT 13 (AnIntro..>2013-07-15 01:00 317K 
 2010_AITAmI'10(Quant..>2012-12-31 00:00 318K 
 2006_SPCA06(Pervasiv..>2012-12-31 00:00 321K 
 2008_FUZZY08(Type2Fu..>2012-12-31 00:00 324K 
 2011_IE11(Perception..>2012-12-31 00:00 325K 
 2010_IE10(iCampusCFP..>2012-12-31 00:00 327K 
 2010_IE10(WebBasedAp..>2012-12-31 00:00 327K 
 2014_IE14(AnObject-O..>2014-06-01 01:00 332K 
 2009_IB09(SomeSocial..>2012-12-31 00:00 332K 
 2002_CSTR02(CSM513Te..>2012-12-31 00:00 335K 
 2016_CS16(ThePainGod..>2016-07-27 01:00 342K 
 2002_LBS02(Intellige..>2012-12-31 00:00 344K 
 2007_Fuzzy07(FuzzyBa..>2012-12-31 00:00 346K 
 2013_IE13(Educationa..>2013-06-26 01:00 357K 
 2000_CIA00(EmbeddedA..>2012-12-31 00:00 357K 
 2015_ITNOW(Injecting..>2015-06-04 01:00 358K 
 1986EJM86(TheMarketR..>2012-12-31 00:00 359K 
 2004_IntelligentSyst..>2012-12-31 00:00 360K 
 2012_iC12(RemoteMixe..>2013-01-12 00:00 362K 
 2008_IE08(BespokeApp..>2013-02-02 00:00 365K 
 1999_RA99(Fuzzy-Gene..>2012-12-31 00:00 369K 
 2012_STEM12(BuzzBoar..>2012-12-31 00:00 373K 
 2000_EXPO2000(MultiA..>2012-12-31 00:00 389K 
 2011_UCAmI11(Compari..>2012-12-31 00:00 389K 
 2002_Dialog02(Intell..>2012-12-31 00:00 394K 
 2007_NTMS07(Preventi..>2012-12-31 00:00 395K 
 2016_CS16(DiegetingI..>2016-07-27 01:00 397K 
 2010_IE10(ExploringT..>2012-12-31 00:00 405K 
 2016_CS16(FromImagin..>2016-06-21 01:00 406K 
 2016_CS16(FromImagin..>2016-07-27 01:00 409K 
 2010_CJ(DetectionOfN..>2015-01-14 00:00 413K 
 2008_ISF08(Affective..>2012-12-31 00:00 414K 
 2011_AiTAmiIE11(Towa..>2012-12-31 00:00 416K 
 2015_iLRN15(Experime..>2015-12-19 00:00 421K 
 2006_API06(Programmi..>2012-12-31 00:00 426K 
 2016_ILRN16(AnOnline..>2016-07-08 01:00 427K 
 2004_BTJ2004(Intelli..>2012-12-31 00:00 440K 
 2016_ILRN16(The21Cen..>2018-10-09 10:11 441K 
 2011_CS11(JimmySearc..>2019-06-17 15:30 449K 
 2016_SOFIEE16(Improv..>2016-07-30 01:00 453K 
 2008_IE08(SimonsPres..>2012-12-31 00:00 454K 
 2008_Fuzzy08(Type2Fu..>2012-12-31 00:00 455K 
 2005_IE05(TowardsTru..>2012-12-31 00:00 461K 
 2010_IGI10(MixedReal..>2012-12-31 00:00 461K 
 1999_doa99(HighPerfo..>2012-12-31 00:00 463K 
 2008_IE08(UsingMulti..>2013-02-02 00:00 466K 
 2010_PMCJ10(AffectAw..>2012-12-31 00:00 467K 
 2012_IGI11(Looking n..>2012-12-31 00:00 468K 
 2012_iC12(Personalis..>2013-01-12 00:00 468K 
 2014_IE14(Preface).pdf 2014-06-01 01:00 475K 
 1982_JMA(SAS)4.pdf 2012-12-31 00:00 479K 
 2013_LLPH13(Lifestyl..>2013-07-20 01:00 484K 
 2007_BL07(Explorator..>2012-12-31 00:00 484K 
 1994_Wyvern94(EssexR..>2012-12-31 00:00 485K 
 1999_Fuzzy99(OnlineL..>2012-12-31 00:00 509K 
 2008_IE08(Programmin..>2015-03-26 00:00 511K 
 2015_iLRN15(TowardsM..>2015-12-19 00:00 523K 
 2016_iLRN16(21stCent..>2016-07-30 01:00 524K 
 2006_UIC-06(EndUserT..>2012-12-31 00:00 529K 
 2006_UIC06(AnEndUser..>2012-12-31 00:00 529K 
 2010_PMCJ10(AffectAw..>2012-12-31 00:00 534K 
 2009_JAISE09(EndUser..>2012-12-31 00:00 538K 
 2010_TAAS10(MultiSoc..>2012-12-31 00:00 549K 
 2013_CoT13(Developin..>2013-07-20 01:00 556K 
 2012_iED12(Show-Me-B..>2013-01-12 00:00 559K 
 2014_CS14(SomeThough..>2014-06-01 01:00 572K 
 2014_IE14(AnEfficien..>2014-06-01 01:00 581K 
 2008_JUS08(Intellige..>2012-12-31 00:00 601K 
 2013_SCI13(TailoredF..>2015-12-19 00:00 616K 
 2014_IE14(UsingMixed..>2014-06-01 01:00 616K 
 2016_iLRN16(Observat..>2016-07-30 01:00 625K 
 2010_IE10(WebBasedAp..>2012-12-31 00:00 631K 
 2013_iED13(TheDreamM..>2013-11-28 00:00 635K 
 2017_iLRN17(TowardsO..>2017-04-18 01:00 639K 
 2010_IE10(Simpleware..>2012-12-31 00:00 649K 
 2012_CEEC12(StoryOfO..>2015-04-25 01:00 656K 
 2004_TSMC(Intelligen..>2012-12-31 00:00 662K 
 2013_CoT13(MakerFabl..>2013-07-15 01:00 665K 
 2013_iED13(TheDreamM..>2013-11-16 00:00 675K 
 2006_Fuzzy06(UsingUn..>2012-12-31 00:00 675K 
 2005_TSMC05(Intellig..>2012-12-31 00:00 678K 
 2005_TSMC(AnIntellig..>2012-12-31 00:00 678K 
 2008_TASS08(Multi-So..>2012-12-31 00:00 678K 
 2012_IE12(TowardsNex..>2013-01-12 00:00 685K 
 2013_iED13(xRealityI..>2013-11-11 00:00 686K 
 2006_Springer06(Prog..>2012-12-31 00:00 697K 
 2011_CS11(TheSpiritu..>2012-12-31 00:00 702K 
 2016_CandE16(Virtual..>2016-07-31 01:00 706K 
 2008_ie08(TowardsEnd..>2015-03-26 00:00 736K 
 2006_Springer06(Prog..>2012-12-31 00:00 746K 
 2011_IE11(Innovative..>2015-01-14 00:00 752K 
 2013_CS13(OpeningSli..>2013-11-28 00:00 753K 
 2010_IE10(StudentSce..>2012-12-31 00:00 755K 
 2016_iLRN16(AnOnline..>2016-07-08 01:00 765K 
 2010_IE10(c-INPRES_C..>2012-12-31 00:00 772K 
 2004_JFSS04(Learning..>2012-12-31 00:00 773K 
 2012_STEM12Buzz-Boar..>2012-12-31 00:00 773K 
 2014_CS14(OpeningSli..>2014-06-01 01:00 773K 
 2010_Springer10(EndU..>2012-12-31 00:00 787K 
 2017_TIE17(AStudyOfD..>2017-10-14 01:00 790K 
 2006_ubicomp2006(AnE..>2012-12-31 00:00 802K 
 2004_IS04(CreatingAm..>2012-12-31 00:00 804K 
 2004_IntelligentSyst..>2012-12-31 00:00 804K 
 2005_UISW05(MultiDim..>2012-12-31 00:00 808K 
 2012_IOS11(iWorldsGe..>2012-12-31 00:00 828K 
 2013_IntelligentBuid..>2014-02-22 00:00 874K 
 2016_iLRN16(FutureOf..>2017-09-30 01:00 898K 
 2013_WOFIEE13(Improv..>2013-07-20 01:00 899K 
 2014_IE14(Integratin..>2014-06-01 01:00 911K 
 2011_iC11(VirtualCla..>2012-12-31 00:00 921K 
 1999_IIA99(Developin..>2012-12-31 00:00 926K 
 2014_CS14(MicroFutur..>2014-06-20 01:00 938K 
 2002_SFSC02(OnlineLe..>2012-12-31 00:00 939K 
 2012_IE12(Intelligen..>2013-01-12 00:00 952K 
 1995_Square195(Pione..>2012-12-31 00:00 958K 
 1985PG85(MRT).pdf 2012-12-31 00:00 967K 
 2010_IE10(LookingBac..>2012-12-31 00:00 1.0M 
 2016_CCCU(Creativity..>2019-06-17 11:23 1.0M 
 2011_CS11(JimmySearc..>2019-06-17 15:30 1.0M 
 2012_IOS12(ManagingC..>2012-12-31 00:00 1.0M 
 2005_JIS05(Type2Fuzz..>2012-12-31 00:00 1.1M 
 2013_HCIF(Intelligen..>2013-06-25 01:00 1.1M 
 2004_FSS04(LearningA..>2012-12-31 00:00 1.1M 
 2012_WOFIEE12(InterR..>2013-01-12 00:00 1.1M 
 2007_IE07(Proceeding..>2012-12-31 00:00 1.1M 
 2004_UN_Habitat04(Pe..>2012-12-31 00:00 1.1M 
 2007_JMIS07(Domestic..>2012-12-31 00:00 1.2M 
 2010_PMC10(AffectAwa..>2012-12-31 00:00 1.2M 
 2016_iLRN16(AnOnline..>2016-07-22 01:00 1.2M 
 1993_CSTR93(CAP_Metr..>2013-01-31 00:00 1.2M 
 2007_TOFS(AnIncremen..>2012-12-31 00:00 1.2M 
 2016_SJTU(ImprovingO..>2016-04-29 01:00 1.2M 
 2010_CS10(TalesfromP..>2012-12-31 00:00 1.2M 
 2008_CIC08(CouplingA..>2012-12-31 00:00 1.3M 
 2012_Sensors12(A Com..>2013-12-25 00:00 1.3M 
 2011_CS11(TheSpiritu..>2012-12-31 00:00 1.3M 
 CS13_Proceedings.pdf 2013-11-16 00:00 1.3M 
 2015_L&L15(TurningSc..>2015-05-03 01:00 1.3M 
 2018(IntroductionToS..>2018-02-23 00:00 1.3M 
 2016_ISS16(Introduct..>2016-07-17 01:00 1.4M 
 2008_TSSA08(Facilita..>2012-12-31 00:00 1.4M 
 1994_Ad94(BrookerLab..>2012-12-31 00:00 1.5M 
 2011_iC11(TeachingNe..>2012-12-31 00:00 1.5M 
 1996_ad96(BrookerLab..>2012-12-31 00:00 1.5M 
 2004_ICRA'04(Evolvin..>2012-12-31 00:00 1.5M 
 2011_IE11(ConfProg).pdf2012-12-31 00:00 1.6M 
 2016_ILRN16(The21Cen..>2018-10-09 10:21 1.6M 
 1994_BrookerLabNewsL..>2012-12-31 00:00 1.6M 
 2000_TCSAM00(Guidanc..>2013-01-31 00:00 1.6M 
 1994_HPAPA94(Program..>2013-01-31 00:00 1.7M 
 2010_CS10(TalesFromA..>2012-12-31 00:00 1.7M 
 2009_PerAda09(Unders..>2012-12-31 00:00 1.7M 
 2015_AaltoLecture(SF..>2019-06-17 11:38 1.7M 
 2002_IOSPress02(Incr..>2012-12-31 00:00 1.7M 
 2015_Brunel(Supporti..>2015-10-27 00:00 1.7M 
 2019_CCCU_CeativityW..>2019-03-18 12:07 1.9M 
 2011_ISAMI11(SocialP..>2012-12-31 00:00 1.9M 
 2012_JAISE12(Support..>2013-01-12 00:00 1.9M 
 2013_Futures2013(Ima..>2013-11-12 00:00 2.0M 
 2015_Brunel(ScienceF..>2015-09-12 01:00 2.0M 
 2016_iLRN16(VirtualO..>2016-07-22 01:00 2.1M 
 2016_iLRN16(SpecialT..>2016-07-22 01:00 2.1M 
 2001_RA01(Prototypin..>2012-12-31 00:00 2.2M 
 2011_IGI11(MultiUser..>2012-12-31 00:00 2.3M 
 2009_JPCC09(Understa..>2012-12-31 00:00 2.3M 
 2014_IEEEComputer(AN..>2014-06-02 01:00 2.4M 
 1994_JAI94(TheImageF..>2013-01-31 00:00 2.5M 
 2000_JAE00(Developin..>2013-01-31 00:00 2.5M 
 2016_CCCU(Creativity..>2016-01-16 00:00 2.6M 
 2015_CCCU(Creativity..>2015-12-01 00:00 2.8M 
 2009_ICADIWT09(Disco..>2012-12-31 00:00 3.3M 
 1982_JMA82(SAS).pdf 2012-12-31 00:00 3.4M 
 2007_PMCJ07(Intellig..>2012-12-31 00:00 3.6M 
 2016_iLRN16(AnOnline..>2016-06-28 01:00 3.6M 
 2013_MiddlesexWorksh..>2013-09-09 01:00 3.8M 
 2005_MIS05(DomesticP..>2012-12-31 00:00 3.8M 
 2010_DFMA10(Intellig..>2012-12-31 00:00 3.8M 
 2016_iLRN16(SpecialT..>2016-07-22 01:00 3.9M 
 2012_iED12(TowardsMi..>2013-01-12 00:00 4.3M 
 2012_IGI12(LookingIn..>2012-12-31 00:00 4.8M 
 1993_JEI93(Structure..>2013-01-31 00:00 4.9M 
 2004_UN_Habitat04(Pe..>2012-12-31 00:00 5.9M 
 2016_iLRN16(IntroMic..>2016-06-27 01:00 6.9M 
 1994_ISANN94(Experim..>2013-02-05 00:00 10M